Starlink 3900

operational
NORAD ID: 52461 Int'l Des: 2022-049 Owner: SPXS Country: US Constellation: starlink
LEOCIRCULAR

Starlink 3900について

説明を読み込み中...

リアルタイム位置

3D地球を読み込み中...

次回通過

高度履歴

Altitude vs Time

uPlot chart will show altitude changes over time

軌道要素

1 52461U 22049L 25304.63762169 .00001165 00000-0 91245-4 0 9997
2 52461 53.2156 268.4609 0001218 95.4251 264.6880 15.08855595192901
Epoch: Oct 31, 2025 • Age: 28 hours

現在のステータス

高度 551.3 km
速度 7.59 km/s
衛星直下点 -34.63°S, 104.89°W
打ち上げ日 May 6, 2022
運用期間 3.4 years
タイプ internet

技術仕様

分類 Payload
質量 297.00 kg
乾燥質量 220.00 kg
総質量 297.00 kg
長さ 0.20 m
直径 2.80 m
スパン 9.00 m
形状 Box + pan
製造者 SPXS
バスタイプ Starlink
フェーズステータス In Orbit
所有者/国 SPXS/US

大規模コンステレーション

Loading constellations...